Bad Axe, MI

2:35 PM EDT on April 23, 2017 (GMT -0400)
Huron County Memorial

Weather History for KBAX - March, 2013

Change the Weather History Date:

Sunday, March 3, 2013

  Actual Average (KP58) Record (KP58)
Temperature  
Mean Temperature 18 °F -  
Max Temperature 22 °F 31 °F 50 °F (2008)
Min Temperature 15 °F 20 °F 0 °F (2003)
Degree Days  
Heating Degree Days 46    
Moisture  
Dew Point 16 °F    
Average Humidity 83    
Maximum Humidity 91    
Minimum Humidity 71    
Precipitation  
Precipitation 0.00 in - - ()
Sea Level Pressure  
Sea Level Pressure 30.00 in    
Wind  
Wind Speed 9 mph (NW)    
Max Wind Speed 14 mph    
Max Gust Speed 16 mph    
Visibility 8 miles    
Events Snow    
Averages and records for this station are not official NWS values.
T = Trace of Precipitation, MM = Missing Value Source: NWS Daily Summary

Daily Weather History Graph

Daily Weather History Graph

Search for Another Location

Airport or City:

Trip Planner

Search our weather history database for the weather conditions in past years. The results will help you decide how hot, cold, wet, or windy it might be!

Date:

Astronomy

Mar. 03, 2013 Rise Set
Actual Time 7:04 AM EST 6:23 PM EST
Civil Twilight 6:36 AM EST 6:52 PM EST
Nautical Twilight 6:02 AM EST 7:25 PM EST
Astronomical Twilight 5:29 AM EST 7:58 PM EST
Moon 12:13 AM EST (3/3) 10:06 AM EST (3/3)
Length of Visible Light 12h 16m
Length of Day
11h 18m
Waning Gibbous, 64% of the Moon is Illuminated
Mar 3
Waning Gibbous
Mar 4
Last Quarter
Mar 11
New
Mar 19
First Quarter
Mar 27
Full

Hourly Weather History & Observations

Time (EST) Temp. Windchill Dew Point Humidity Pressure Visibility Wind Dir Wind Speed Gust Speed Precip Events Conditions
12:13 AM 22.5 °F 9.9 °F 16.2 °F 77% 30.02 in 10.0 mi NW 13.8 mph - N/A   Overcast
12:34 AM 22.1 °F 10.6 °F 16.5 °F 79% 30.02 in 10.0 mi NW 11.5 mph - N/A   Overcast
12:54 AM 21.9 °F 10.4 °F 16.5 °F 80% 30.01 in 10.0 mi NW 11.5 mph - N/A   Overcast
1:13 AM 21.7 °F 10.8 °F 16.9 °F 82% 30.01 in 10.0 mi NW 10.4 mph - N/A   Overcast
1:34 AM 21.6 °F 10.6 °F 17.2 °F 83% 30.01 in 10.0 mi NW 10.4 mph - N/A   Overcast
1:54 AM 21.2 °F 11.7 °F 17.2 °F 85% 30.01 in 10.0 mi WNW 8.1 mph - N/A   Overcast
2:34 AM 21.9 °F 12.5 °F 18.1 °F 85% 30.00 in 10.0 mi NW 8.1 mph - N/A Snow Light Snow
2:54 AM 21.9 °F 13.4 °F 18.1 °F 85% 30.00 in 10.0 mi WNW 6.9 mph - N/A Snow Light Snow
3:13 AM 21.9 °F 11.7 °F 18.3 °F 86% 29.99 in 10.0 mi WNW 9.2 mph - N/A   Overcast
3:34 AM 21.6 °F 11.3 °F 18.0 °F 86% 29.98 in 10.0 mi WNW 9.2 mph - N/A   Overcast
4:14 AM 20.7 °F 11.0 °F 17.4 °F 87% 29.98 in 10.0 mi WNW 8.1 mph - N/A   Overcast
4:34 AM 20.3 °F 10.6 °F 17.2 °F 88% 29.98 in 10.0 mi WNW 8.1 mph - N/A   Overcast
4:53 AM 19.6 °F 8.9 °F 16.5 °F 88% 29.98 in 10.0 mi WNW 9.2 mph - N/A   Overcast
5:14 AM 18.3 °F 7.3 °F 15.3 °F 88% 29.98 in 10.0 mi WNW 9.2 mph - N/A   Overcast
5:34 AM 17.2 °F 6.8 °F 14.5 °F 89% 29.99 in 10.0 mi WNW 8.1 mph - N/A   Mostly Cloudy
5:53 AM 17.1 °F 6.6 °F 14.5 °F 90% 29.99 in 10.0 mi WNW 8.1 mph - N/A   Overcast
6:14 AM 16.5 °F 6.9 °F 14.0 °F 90% 29.99 in 10.0 mi WNW 6.9 mph - N/A   Mostly Cloudy
6:34 AM 15.8 °F 7.2 °F 13.5 °F 90% 29.99 in 10.0 mi WNW 5.8 mph - N/A   Scattered Clouds
6:53 AM 15.6 °F 7.0 °F 13.5 °F 91% 30.00 in 10.0 mi WNW 5.8 mph - N/A   Clear
7:14 AM 16.3 °F 6.7 °F 14.2 °F 91% 30.00 in 10.0 mi WNW 6.9 mph - N/A Snow Light Snow
7:34 AM 17.2 °F 10.2 °F 14.9 °F 91% 30.00 in 7.0 mi WNW 4.6 mph - N/A Snow Light Snow
7:54 AM 18.1 °F 8.9 °F 15.8 °F 91% 30.01 in 10.0 mi NW 6.9 mph - N/A Snow Light Snow
8:14 AM 19.2 °F 9.3 °F 16.3 °F 89% 30.00 in 10.0 mi NW 8.1 mph - N/A Snow Light Snow
8:34 AM 19.8 °F 9.9 °F 15.8 °F 85% 30.00 in 7.0 mi NW 8.1 mph - N/A Snow Light Snow
8:54 AM 19.9 °F 10.1 °F 15.8 °F 84% 30.00 in 4.0 mi NW 8.1 mph - N/A Snow Light Snow
9:14 AM 20.1 °F 8.8 °F 16.5 °F 86% 30.00 in 2.5 mi NW 10.4 mph - N/A Snow Light Snow
9:34 AM 20.1 °F 8.8 °F 16.5 °F 86% 30.00 in 2.0 mi NW 10.4 mph - N/A Snow Light Snow
9:54 AM 20.1 °F 8.8 °F 16.3 °F 85% 30.00 in 2.5 mi WNW 10.4 mph - N/A Snow Light Snow
10:14 AM 20.3 °F 9.8 °F 16.7 °F 86% 30.00 in 3.0 mi WNW 9.2 mph - N/A Snow Light Snow
10:34 AM 21.0 °F 11.4 °F 17.1 °F 85% 30.00 in 3.0 mi WNW 8.1 mph - N/A Snow Light Snow
10:54 AM 21.2 °F 12.6 °F 16.9 °F 83% 30.00 in 2.0 mi NNW 6.9 mph - N/A Snow Light Snow
11:14 AM 20.3 °F 7.7 °F 16.2 °F 84% 30.00 in 2.0 mi NW 12.7 mph - N/A Snow Light Snow
11:34 AM 19.9 °F 7.3 °F 16.0 °F 85% 30.00 in 2.5 mi WNW 12.7 mph - N/A Snow Light Snow
11:54 AM 20.3 °F 7.7 °F 16.0 °F 83% 30.00 in 1.8 mi WNW 12.7 mph - N/A Snow Light Snow
12:14 PM 20.3 °F 7.7 °F 16.0 °F 83% 30.00 in 3.0 mi WNW 12.7 mph - N/A Snow Light Snow
12:34 PM 20.7 °F 8.2 °F 16.3 °F 83% 30.00 in 2.0 mi WNW 12.7 mph - N/A Snow Light Snow
12:54 PM 21.2 °F 9.5 °F 16.7 °F 83% 29.99 in 2.5 mi WNW 11.5 mph 16.1 mph N/A Snow Light Snow
1:14 PM 21.0 °F 9.3 °F 16.7 °F 83% 29.99 in 2.5 mi NW 11.5 mph 16.1 mph N/A Snow Light Snow
1:33 PM 21.2 °F 8.9 °F 16.7 °F 83% 29.99 in 2.5 mi NW 12.7 mph 16.1 mph N/A Snow Light Snow
1:54 PM 21.4 °F 9.7 °F 16.9 °F 83% 29.99 in 2.5 mi WNW 11.5 mph - N/A Snow Light Snow
2:14 PM 21.7 °F 10.8 °F 16.9 °F 82% 29.99 in 2.0 mi NW 10.4 mph - N/A Snow Light Snow
2:54 PM 21.2 °F 10.1 °F 15.6 °F 79% 29.99 in 4.0 mi WNW 10.4 mph - N/A Snow Light Snow
3:14 PM 21.7 °F 12.3 °F 14.9 °F 75% 29.99 in 10.0 mi WNW 8.1 mph - N/A Snow Light Snow
3:34 PM 21.9 °F 10.4 °F 14.7 °F 74% 29.99 in 10.0 mi NW 11.5 mph - N/A   Overcast
3:54 PM 22.6 °F 14.3 °F 15.4 °F 74% 29.99 in 10.0 mi NW 6.9 mph - N/A   Overcast
4:14 PM 22.8 °F 14.5 °F 14.7 °F 71% 29.98 in 10.0 mi NW 6.9 mph - N/A   Overcast
4:54 PM 22.1 °F 15.9 °F 14.0 °F 71% 29.99 in 10.0 mi NW 4.6 mph - N/A   Scattered Clouds
5:14 PM 21.4 °F 15.1 °F 14.2 °F 74% 29.99 in 10.0 mi NW 4.6 mph - N/A   Clear
5:34 PM 21.2 °F 14.9 °F 14.0 °F 74% 29.99 in 10.0 mi NNW 4.6 mph - N/A   Clear
5:54 PM 20.5 °F 14.0 °F 13.8 °F 75% 30.00 in 10.0 mi North 4.6 mph - N/A   Clear
6:14 PM 20.5 °F - 14.0 °F 76% 30.00 in 10.0 mi Calm Calm - N/A   Mostly Cloudy
6:34 PM 21.2 °F 16.4 °F 14.9 °F 77% 30.00 in 10.0 mi NW 3.5 mph - N/A   Overcast
6:54 PM 21.9 °F 15.7 °F 16.5 °F 80% 30.01 in 10.0 mi North 4.6 mph - N/A   Overcast
7:14 PM 22.1 °F 15.9 °F 16.5 °F 79% 30.02 in 10.0 mi North 4.6 mph - N/A   Overcast
7:34 PM 21.9 °F 17.2 °F 16.7 °F 80% 30.02 in 10.0 mi North 3.5 mph - N/A   Overcast
7:54 PM 21.7 °F 15.5 °F 16.7 °F 81% 30.03 in 10.0 mi North 4.6 mph - N/A   Overcast
8:15 PM 21.9 °F - 16.9 °F 81% 30.03 in 10.0 mi Calm Calm - N/A   Overcast
8:34 PM 21.9 °F 17.2 °F 17.2 °F 82% 30.03 in 10.0 mi North 3.5 mph - N/A Snow Light Snow
8:54 PM 22.1 °F 13.7 °F 17.4 °F 82% 30.03 in 10.0 mi North 6.9 mph - N/A   Overcast
9:15 PM 22.1 °F 14.7 °F 17.2 °F 82% 30.03 in 10.0 mi North 5.8 mph - N/A   Overcast
9:34 PM 21.7 °F 14.3 °F 16.9 °F 82% 30.03 in 10.0 mi North 5.8 mph - N/A   Overcast
9:54 PM 20.3 °F 13.8 °F 16.2 °F 84% 30.03 in 10.0 mi North 4.6 mph - N/A   Overcast
10:15 PM 20.1 °F 10.3 °F 15.1 °F 81% 30.03 in 10.0 mi NNW 8.1 mph - N/A   Mostly Cloudy
10:34 PM 18.9 °F 12.1 °F 13.5 °F 79% 30.03 in 10.0 mi NW 4.6 mph - N/A   Scattered Clouds
10:54 PM 18.1 °F 11.3 °F 13.3 °F 81% 30.03 in 10.0 mi NW 4.6 mph - N/A   Clear
11:13 PM 17.4 °F 7.1 °F 12.9 °F 83% 30.03 in 10.0 mi NNW 8.1 mph - N/A   Clear
11:34 PM 17.2 °F 7.8 °F 11.7 °F 79% 30.03 in 10.0 mi NW 6.9 mph - N/A   Scattered Clouds
11:54 PM 17.2 °F 8.9 °F 12.0 °F 80% 30.04 in 10.0 mi WNW 5.8 mph - N/A   Scattered Clouds